Вернуться в каталог

OPS 4682 DEB

АктивенPO
NORAD 14715·DEBRIS·🇺🇸 United States

Запущен Apr 3, 1965 с Vandenberg Space Force Base

Loading…

Ближайшие Пролёты (ближайшие 24 часа)

TLE

СвежийSource: Space-Track

Эпоха: Sep 14, 2026, 05:19 UTC

1 14715U 65027N   26257.22157588  .00000579  00000-0  19892-2 0  9990
2 14715  90.2355 350.9849 0035261 255.2307 132.5976 12.96586545 20335

Отслеживайте OPS 4682 DEB в реальном времени с AllMySat

Download on the App Store